Location: Poughquag
(41.6090°N, 73.6820°W)
Time: 14:17:14
(UTC-04:00)

Courier 1B - Pass Details

Date: 06 June 2020
Orbit: 962 x 1209 km, 28.3° (Epoch: 05 July)

Event Time Altitude Azimuth Distance (km) Brightness Sun altitude
Rises 23:06:43 0° 243° (WSW) 3,796 10.6 -21.0°
Reaches altitude 10° 23:09:46 10° 232° (SW) 2,883 9.8 -21.3°
Enters shadow 23:13:41 25° 201° (SSW) 2,051 8.8 -21.6°
